[[{"header":{"parameterUnit":"m.s-1","parameterCategory":1,"la1":30.2991,"la2":30.254,"lo1":-89.0895,"lo2":-89.0444,"dy":0.0017,"dx":0.0017,"nx":28,"ny":28,"refTime":"2025-11-10T03:00:00:Z","depth":0,"parameterNumber":2,"parameterNumberName":"U-component_of_WINDS"},"data":[0,0,0,0,0,0,0,0,0,0,0,0,0,0,0,0,0,0,0,0,0,0,0,0,0,0,0,0,0,0,0,0,0,0,0,0,0,0,0,0,0,0,0,0,0,0,0,0,0,0,0,0,0,0,0,0,0,0,-0.8864,-0.8864,0,-0.886,-0.886,-0.886,-0.8821,-0.882,-0.8819,-0.8818,-0.8815,-0.8815,-0.8816,0,0,0,0,0,0,0,0,0,0,0,0,0,-0.8838,-0.8839,-0.8864,-0.8864,-0.8864,-0.886,-0.886,-0.886,-0.8821,-0.882,-0.8819,-0.8818,-0.8814,-0.8815,-0.8816,0,0,0,0,0,0,0,0,0,0,0,0,0,-0.8844,-0.8839,-0.8864,-0.8844,-0.8842,-0.886,-0.886,-0.886,-0.8821,-0.882,-0.8818,-0.8817,-0.8814,-0.8815,-0.8816,-0.8853,0,0,-0.882,-0.8821,0,0,0,0,0,0,0,0,-0.8843,-0.8845,-0.8847,-0.8846,-0.8844,-0.8839,-0.8849,-0.8858,-0.8822,-0.8829,-0.8818,-0.8816,-0.8824,-0.8824,-0.8827,-0.8853,-0.8853,-0.882,-0.8821,-0.8822,-0.8822,0,0,0,0,0,0,0,-0.8843,-0.8844,-0.8863,-0.8847,-0.8845,-0.8835,-0.8834,-0.8851,-0.8835,-0.8829,-0.8826,-0.8826,-0.8823,-0.8826,-0.8826,-0.8853,-0.882,-0.8821,-0.8822,-0.8823,-0.8906,-0.8907,0,0,0,0,0,0,-0.8845,-0.8844,-0.8863,-0.8862,-0.884,-0.8837,-0.8836,-0.8842,-0.8835,-0.8832,-0.8827,-0.8824,-0.8824,-0.8825,-0.8826,-0.8867,-0.8822,-0.8823,-0.8823,-0.8905,-0.8906,-0.8908,0,0,0,0,0,0,-0.8845,-0.8847,-0.8863,-0.8853,-0.8854,-0.8839,-0.8846,-0.8843,-0.8846,-0.8833,-0.883,-0.8833,-0.8823,-0.8825,-0.8846,-0.8866,-0.8823,-0.8824,-0.8903,-0.8905,-0.8907,-0.895,0,0,0,0,0,0,-0.8844,-0.8848,-0.8862,-0.8853,-0.8855,-0.8883,-0.8848,-0.8844,-0.8848,-0.8844,-0.8838,-0.8836,-0.8822,-0.8844,-0.8847,-0.8867,-0.8825,-0.8901,-0.8904,-0.8906,-0.8947,-0.8954,-0.8959,0,0,0,0,0,-0.8844,-0.8875,-0.8863,-0.8865,-0.8872,-0.8885,-0.8885,-0.8869,-0.885,-0.8863,-0.8855,-0.8836,-0.8864,-0.8847,-0.885,-0.8871,-0.89,-0.8903,-0.8906,-0.8944,-0.8952,-0.8959,0,0,0,0,0,0,-0.8888,-0.8874,-0.886,-0.8889,-0.8888,-0.8878,-0.8895,-0.8878,-0.8883,-0.8879,-0.8858,-0.8857,-0.8882,-0.8878,-0.886,-0.8904,-0.8878,-0.8882,-0.8906,-0.8914,-0.892,-0.892,-0.8826,0,0,0,0,0,-0.89,-0.8912,-0.8899,-0.8926,-0.8926,-0.8911,-0.8916,-0.8902,-0.8901,-0.89,-0.8894,-0.8893,-0.8901,-0.8907,-0.8914,-0.8946,-0.8943,-0.8961,-0.8968,-0.8973,-0.8977,-0.8991,-0.8998,-0.8919,-0.8919,-0.8919,0,0,-0.8928,-0.8921,-0.893,-0.8935,-0.8932,-0.8944,-0.8911,-0.8925,-0.8933,-0.8903,-0.8922,-0.8917,-0.8915,-0.8941,-0.8952,-0.8939,-0.8998,-0.8977,-0.8981,-0.8982,-0.8995,-0.9003,-0.9009,-0.8921,-0.8921,-0.892,0,0,-0.8983,-0.898,-0.9001,-0.8999,-0.8995,-0.8984,-0.8989,-0.8981,-0.8976,-0.8995,-0.8971,-0.898,-0.8996,-0.8994,-0.8995,-0.9047,-0.9029,-0.905,-0.9083,-0.9097,-0.9103,-0.9108,-0.9125,-0.9132,-0.9054,-0.9054,-0.9054,0,-0.9017,-0.9034,-0.9014,-0.9029,-0.9031,-0.9003,-0.9023,-0.9022,-0.9021,-0.9023,-0.9008,-0.9024,-0.9021,-0.9045,-0.9058,-0.906,-0.9064,-0.9051,-0.9104,-0.9109,-0.9114,-0.913,-0.9136,-0.9056,-0.9056,-0.9056,-0.9055,0,-0.9076,-0.9087,-0.9105,-0.9103,-0.9107,-0.9125,-0.9108,-0.9114,-0.91,-0.909,-0.9108,-0.9103,-0.9107,-0.9112,-0.9099,-0.9134,-0.9125,-0.9107,-0.908,-0.9124,-0.9138,-0.9145,-0.906,-0.9059,-0.9058,-0.9057,0,0,-0.916,-0.9145,-0.9152,-0.915,-0.9142,-0.9151,-0.9167,-0.917,-0.9175,-0.9175,-0.9187,-0.9199,-0.9181,-0.9182,-0.9169,-0.9181,-0.922,-0.9161,-0.9161,-0.9171,-0.9256,-0.927,-0.9277,-0.9208,-0.9209,-0.921,-0.9256,0,-0.9213,-0.9239,-0.922,-0.9249,-0.9258,-0.923,-0.9243,-0.924,-0.9231,-0.9237,-0.9227,-0.9235,-0.9212,-0.9212,-0.9223,-0.9213,-0.9237,-0.921,-0.9218,-0.9219,-0.922,-0.9285,-0.93,-0.9344,-0.9262,-0.9263,-0.9263,0,-0.9278,-0.9278,-0.9308,-0.9296,-0.9299,-0.9312,-0.9312,-0.9319,-0.9313,-0.9306,-0.9306,-0.9288,-0.9301,-0.9275,-0.9293,-0.9274,-0.9276,-0.9272,-0.9273,-0.9273,-0.9244,-0.9286,-0.9357,-0.9364,-0.9273,-0.9272,-0.9271,0,-0.9335,-0.9344,-0.9362,-0.9361,-0.9348,-0.9357,-0.9352,-0.9345,-0.9347,-0.9347,-0.9348,-0.935,-0.9351,-0.9353,-0.9335,-0.9318,-0.9355,-0.9327,-0.9348,-0.9348,-0.9357,-0.9357,-0.9429,-0.936,-0.936,-0.9359,-0.9359,0,-0.9395,-0.9414,-0.9387,-0.9398,-0.9418,-0.9396,-0.9416,-0.9408,-0.9401,-0.941,-0.9385,-0.9394,-0.937,-0.9376,-0.9363,-0.9378,-0.9379,-0.9373,-0.9369,-0.9375,-0.9375,-0.9376,-0.9372,-0.9361,-0.9361,-0.936,-0.936,0,-0.9463,-0.9446,-0.9463,-0.9448,-0.9445,-0.946,-0.9447,-0.9456,-0.9444,-0.9455,-0.9457,-0.9438,-0.9443,-0.9426,-0.9429,-0.9419,-0.9442,-0.9434,-0.9444,-0.9441,-0.9462,-0.946,-0.9537,-0.9545,-0.9471,-0.9472,-0.9473,0,-0.9502,-0.9516,-0.9502,-0.9505,-0.9501,-0.9507,-0.9509,-0.9487,-0.9489,-0.9482,-0.9492,-0.9495,-0.9496,-0.9506,-0.9492,-0.9494,-0.9485,-0.9511,-0.9485,-0.9489,-0.9484,-0.9483,-0.9483,-0.9517,-0.9518,-0.9519,-0.9519,0,-0.9574,-0.9564,-0.9567,-0.9566,-0.9568,-0.9567,-0.9564,-0.9568,-0.9544,-0.9548,-0.9552,-0.9553,-0.9554,-0.9557,-0.9555,-0.9549,-0.953,-0.9527,-0.9532,-0.9538,-0.9543,-0.9539,-0.9458,-0.9526,-0.9525,-0.9525,-0.9524,-0.9524,-0.9628,-0.9638,-0.9628,-0.9632,-0.9627,-0.9624,-0.9631,-0.9619,-0.9622,-0.9621,-0.9608,-0.9614,-0.9606,-0.9601,-0.9597,-0.9601,-0.9589,-0.9596,-0.9597,-0.9599,-0.9602,-0.9542,-0.9601,-0.9601,-0.96,-0.96,-0.96,0,-0.9697,-0.9689,-0.9692,-0.9687,-0.969,-0.967,-0.9665,-0.9668,-0.9674,-0.9668,-0.9668,-0.9672,-0.9674,-0.966,-0.966,-0.9666,-0.9656,-0.9666,-0.9665,-0.9664,-0.9614,-0.961,-0.9673,-0.9673,-0.9673,-0.9673,-0.9673,-0.9673,-0.9733,-0.9748,-0.9736,-0.9748,-0.9739,-0.9745,-0.9743,-0.974,-0.9734,-0.974,-0.974,-0.9731,-0.9721,-0.9719,-0.9719,-0.9715,-0.9715,-0.9728,-0.9721,-0.9675,-0.9668,-0.9661,-0.9656,-0.9728,-0.9729,-0.9769,-0.977,-0.977]},{"header":{"parameterUnit":"m.s-1","parameterCategory":1,"la1":30.2991,"la2":30.254,"lo1":-89.0895,"lo2":-89.0444,"dy":0.0017,"dx":0.0017,"nx":28,"ny":28,"refTime":"2025-11-10T03:00:00:Z","depth":0,"parameterNumber":3,"parameterNumberName":"V-component_of_WINDS"},"data":[0,0,0,0,0,0,0,0,0,0,0,0,0,0,0,0,0,0,0,0,0,0,0,0,0,0,0,0,0,0,0,0,0,0,0,0,0,0,0,0,0,0,0,0,0,0,0,0,0,0,0,0,0,0,0,0,0,0,-7.7009,-7.701,0,-7.7169,-7.7171,-7.7173,-7.7057,-7.7052,-7.7047,-7.7042,-7.7199,-7.7208,-7.7217,0,0,0,0,0,0,0,0,0,0,0,0,0,-7.6594,-7.6603,-7.7009,-7.7011,-7.7013,-7.7169,-7.7171,-7.7173,-7.7058,-7.7051,-7.7045,-7.7039,-7.7196,-7.7207,-7.7218,0,0,0,0,0,0,0,0,0,0,0,0,0,-7.6766,-7.6605,-7.7008,-7.6974,-7.6972,-7.7168,-7.7171,-7.7174,-7.7059,-7.7051,-7.7044,-7.7037,-7.7193,-7.7206,-7.7219,-7.7456,0,0,-7.726,-7.7266,0,0,0,0,0,0,0,0,-7.6757,-7.6782,-7.6977,-7.6977,-7.6975,-7.7085,-7.7083,-7.7268,-7.7061,-7.7026,-7.7042,-7.7033,-7.7167,-7.7182,-7.7229,-7.7463,-7.747,-7.7261,-7.727,-7.7275,-7.7279,0,0,0,0,0,0,0,-7.6745,-7.6774,-7.7072,-7.698,-7.6979,-7.6948,-7.6964,-7.7117,-7.7137,-7.7028,-7.702,-7.7041,-7.7165,-7.7216,-7.7232,-7.7472,-7.7261,-7.7273,-7.7281,-7.7287,-7.7906,-7.7914,0,0,0,0,0,0,-7.6737,-7.6765,-7.7067,-7.7077,-7.6845,-7.6962,-7.698,-7.7058,-7.7135,-7.714,-7.7048,-7.7035,-7.7197,-7.7216,-7.7237,-7.7518,-7.7275,-7.7288,-7.7296,-7.7897,-7.7908,-7.7917,0,0,0,0,0,0,-7.6729,-7.6765,-7.706,-7.6919,-7.6954,-7.6977,-7.7066,-7.7065,-7.7116,-7.715,-7.7152,-7.7097,-7.7192,-7.7218,-7.7402,-7.7521,-7.7294,-7.7306,-7.7888,-7.7901,-7.7912,-7.8082,0,0,0,0,0,0,-7.6717,-7.6763,-7.6855,-7.6922,-7.6962,-7.7226,-7.7073,-7.7074,-7.714,-7.7126,-7.7197,-7.7201,-7.7188,-7.7383,-7.7416,-7.7536,-7.7317,-7.7877,-7.7893,-7.7908,-7.8066,-7.8099,-7.8127,0,0,0,0,0,-7.6703,-7.6895,-7.686,-7.6897,-7.7078,-7.7233,-7.7256,-7.7238,-7.715,-7.7242,-7.7263,-7.7199,-7.7503,-7.7403,-7.7439,-7.7565,-7.7869,-7.7889,-7.7907,-7.8052,-7.8092,-7.8126,0,0,0,0,0,0,-7.684,-7.6903,-7.6865,-7.7086,-7.7155,-7.7213,-7.7328,-7.7282,-7.7376,-7.7358,-7.733,-7.7347,-7.754,-7.7571,-7.7457,-7.7796,-7.7672,-7.7699,-7.777,-7.7808,-7.7839,-7.7827,-7.7328,0,0,0,0,0,-7.6896,-7.7019,-7.7067,-7.7256,-7.7293,-7.7305,-7.7372,-7.7353,-7.7422,-7.7451,-7.7486,-7.7554,-7.7664,-7.7738,-7.7842,-7.807,-7.8082,-7.8174,-7.8204,-7.8229,-7.8253,-7.8373,-7.8414,-7.7979,-7.7978,-7.7978,0,0,-7.7012,-7.7062,-7.7141,-7.7285,-7.7337,-7.7462,-7.733,-7.7469,-7.7561,-7.7471,-7.7647,-7.7676,-7.7749,-7.7956,-7.8049,-7.7987,-7.8376,-7.8253,-7.8273,-7.8283,-7.8397,-7.8438,-7.8475,-7.7991,-7.7989,-7.7987,0,0,-7.7289,-7.734,-7.7503,-7.7558,-7.7638,-7.7644,-7.7684,-7.7749,-7.7765,-7.7942,-7.7877,-7.7984,-7.8176,-7.8231,-7.8285,-7.8581,-7.8525,-7.8616,-7.8775,-7.8893,-7.8928,-7.8958,-7.9062,-7.91,-7.8639,-7.8639,-7.864,0,-7.7423,-7.7612,-7.7592,-7.7736,-7.78,-7.7726,-7.7889,-7.7942,-7.8052,-7.8097,-7.8027,-7.8265,-7.831,-7.8528,-7.86,-7.8646,-7.8688,-7.8607,-7.8925,-7.8955,-7.8983,-7.9082,-7.9122,-7.865,-7.8648,-7.8647,-7.8646,0,-7.7772,-7.7904,-7.8025,-7.8135,-7.8213,-7.8366,-7.8366,-7.8447,-7.8421,-7.8434,-7.8614,-7.8665,-7.8777,-7.8827,-7.8802,-7.9042,-7.9001,-7.8929,-7.8803,-7.9035,-7.9128,-7.9166,-7.8665,-7.8661,-7.8658,-7.8655,0,0,-7.8139,-7.8236,-7.8281,-7.8329,-7.8412,-7.8513,-7.8661,-7.8773,-7.8842,-7.8919,-7.9041,-7.9205,-7.9139,-7.9199,-7.9179,-7.9283,-7.9513,-7.9198,-7.9199,-7.9254,-7.9778,-7.9832,-7.9876,-7.9477,-7.9484,-7.949,-7.9771,0,-7.8419,-7.8681,-7.8666,-7.891,-7.9031,-7.8962,-7.909,-7.9154,-7.917,-7.9272,-7.9288,-7.9404,-7.9308,-7.9344,-7.9444,-7.9465,-7.9618,-7.9444,-7.9588,-7.9593,-7.9571,-7.9925,-7.9982,-8.0246,-7.9808,-7.9814,-7.9818,0,-7.8781,-7.8873,-7.913,-7.9194,-7.9244,-7.9361,-7.9461,-7.9561,-7.963,-7.9634,-7.9702,-7.9665,-7.9811,-7.9683,-7.9884,-7.9765,-7.9823,-7.9842,-7.9851,-7.9864,-7.972,-7.9946,-8.033,-8.0369,-7.9875,-7.9871,-7.9867,0,-7.9022,-7.921,-7.9388,-7.9431,-7.9511,-7.9594,-7.963,-7.9692,-7.976,-7.9847,-7.989,-7.9993,-8.0049,-8.0128,-8.0118,-8.0026,-8.0322,-8.0193,-8.0328,-8.0328,-8.0393,-8.0389,-8.0791,-8.0432,-8.0431,-8.043,-8.043,0,-7.9336,-7.9495,-7.9497,-7.9606,-7.9782,-7.9763,-7.9936,-7.9963,-8.0019,-8.013,-8.0075,-8.018,-8.0162,-8.0266,-8.0259,-8.0426,-8.0452,-8.0457,-8.0453,-8.0462,-8.0461,-8.0499,-8.048,-8.0441,-8.0439,-8.0437,-8.0435,0,-7.9635,-7.9643,-7.9831,-7.9892,-7.991,-8.0037,-8.0087,-8.0189,-8.02,-8.0341,-8.0373,-8.039,-8.051,-8.0508,-8.0644,-8.0639,-8.0843,-8.0819,-8.0821,-8.0816,-8.095,-8.0937,-8.139,-8.1448,-8.1052,-8.1056,-8.1059,0,-7.9835,-7.9956,-8.0029,-8.0101,-8.0143,-8.0259,-8.0329,-8.0314,-8.0387,-8.0475,-8.0566,-8.0681,-8.0773,-8.0967,-8.0989,-8.1093,-8.1069,-8.1221,-8.1084,-8.1089,-8.107,-8.1063,-8.1074,-8.1247,-8.1252,-8.1255,-8.1258,0,-8.0188,-8.0185,-8.0289,-8.0394,-8.0479,-8.056,-8.0635,-8.0696,-8.0688,-8.0774,-8.0897,-8.0968,-8.1107,-8.1222,-8.1321,-8.1355,-8.1306,-8.1301,-8.1338,-8.1348,-8.1344,-8.1347,-8.0893,-8.1291,-8.1288,-8.1285,-8.1283,-8.1282,-8.0442,-8.0546,-8.0615,-8.0731,-8.0786,-8.0857,-8.0956,-8.098,-8.1083,-8.1197,-8.1181,-8.1318,-8.1381,-8.151,-8.1553,-8.1658,-8.1604,-8.1658,-8.1671,-8.1684,-8.1699,-8.1328,-8.1676,-8.1675,-8.1674,-8.1673,-8.1673,0,-8.0792,-8.0832,-8.094,-8.1047,-8.1138,-8.1086,-8.1165,-8.1244,-8.1366,-8.1431,-8.1523,-8.1663,-8.1773,-8.1805,-8.1911,-8.1988,-8.1968,-8.2017,-8.201,-8.2019,-8.1741,-8.1699,-8.2031,-8.2031,-8.2031,-8.2031,-8.2031,-8.2031,-8.0984,-8.1157,-8.1163,-8.1362,-8.14,-8.1536,-8.1586,-8.165,-8.1702,-8.1862,-8.1954,-8.1975,-8.2026,-8.2135,-8.2233,-8.2239,-8.228,-8.2337,-8.2334,-8.2074,-8.2038,-8.2004,-8.1964,-8.2347,-8.2347,-8.2603,-8.2605,-8.2607]}]]